CST,Max TemperatureF,Mean TemperatureF,Min TemperatureF,Max Dew PointF,MeanDew PointF,Min DewpointF,Max Humidity, Mean Humidity, Min Humidity, Max Sea Level PressureIn, Mean Sea Level PressureIn, Min Sea Level PressureIn, Max VisibilityMiles, Mean VisibilityMiles, Min VisibilityMiles, Max Wind SpeedMPH, Mean Wind SpeedMPH, Max Gust SpeedMPH,PrecipitationIn, CloudCover, Events, WindDirDegrees
2011-11-1,75,60,44,47,40,28,71,52,33,29.99,29.92,29.84,10,10,10,12,11,15,0.00,2,,186
2011-11-2,62,49,36,46,39,35,92,74,56,30.12,30.03,29.91,10,8,2,30,16,40,0.87,8,Rain-Snow-Thunderstorm,18
2011-11-3,52,43,34,36,32,27,92,65,38,30.28,30.16,30.03,10,10,8,25,14,32,T,4,Snow,360
2011-11-4,56,42,28,37,31,26,85,60,35,30.32,30.23,30.12,10,10,10,16,7,20,0.00,0,,122
2011-11-5,56,49,41,44,41,35,96,79,61,30.11,29.97,29.81,10,8,4,22,13,30,0.00,3,,158
2011-11-6,60,50,39,46,39,30,86,62,37,30.10,29.91,29.78,10,10,10,29,11,38,0.00,0,,221
2011-11-7,60,48,35,40,32,24,83,56,28,30.22,30.13,29.89,10,9,4,33,10,48,1.13,3,Rain,49
2011-11-8,44,40,35,40,39,33,93,91,89,30.03,29.97,29.85,10,5,2,29,17,48,0.82,8,Rain-Snow,37
2011-11-9,45,39,32,34,30,24,100,81,62,30.23,30.08,29.90,10,8,1,18,15,24,0.55,4,Snow,312
2011-11-10,41,35,28,24,21,17,75,60,45,30.27,30.20,30.09,10,10,10,23,12,29,0.00,0,,264
2011-11-11,58,43,28,34,28,18,73,57,40,30.06,29.84,29.76,10,10,10,18,10,24,0.00,0,,204
2011-11-12,58,47,36,37,34,32,85,63,40,29.75,29.58,29.42,10,10,10,24,12,32,0.00,0,,187
2011-11-13,57,49,40,45,35,27,77,55,32,29.63,29.47,29.29,10,10,10,31,13,41,0.00,0,,241
2011-11-14,61,51,40,35,32,30,79,56,32,29.75,29.64,29.55,10,10,10,23,9,28,0.00,1,,218
2011-11-15,60,47,33,35,28,20,82,59,36,30.05,29.82,29.68,10,10,10,18,9,23,0.00,0,,296
2011-11-16,44,35,25,19,14,9,63,44,25,30.32,30.22,30.06,10,10,9,18,9,23,0.00,0,,324
2011-11-17,45,33,21,24,17,12,74,53,31,30.34,30.23,30.04,10,10,10,23,13,29,0.00,0,,222
2011-11-18,57,45,33,33,28,22,69,55,41,30.02,29.84,29.73,10,10,10,24,16,32,0.00,0,,189
2011-11-19,63,46,28,47,35,23,85,69,53,30.12,29.73,29.57,10,10,10,26,14,32,0.00,7,,187
2011-11-20,33,29,24,26,22,19,88,79,69,30.34,30.25,30.15,10,10,10,20,9,23,0.00,5,,24
2011-11-21,42,35,27,37,32,24,92,86,79,30.29,30.20,30.11,10,8,2,9,4,12,0.00,8,,26
2011-11-22,44,42,39,41,39,36,100,93,85,30.18,30.04,29.97,8,4,1,12,6,16,0.27,8,Rain,357
2011-11-23,46,42,38,39,38,37,100,88,76,30.24,30.19,30.15,7,5,2,15,8,17,0.00,5,,189
2011-11-24,65,51,37,45,39,37,100,70,40,30.16,30.06,29.93,10,6,0,24,14,31,0.00,1,Fog,180
2011-11-25,55,49,42,48,44,37,89,78,66,29.92,29.81,29.74,10,9,7,25,14,33,T,7,,190
2011-11-26,54,45,36,52,41,27,100,82,64,30.13,29.89,29.73,10,8,4,29,16,39,0.25,8,Rain,294
2011-11-27,37,31,24,27,24,21,81,73,64,30.25,30.19,30.10,10,10,10,28,15,36,0.00,7,,350
2011-11-28,39,33,27,27,25,23,92,76,59,30.21,30.15,30.09,10,10,10,10,3,13,0.00,4,,2
2011-11-29,43,33,22,27,17,8,85,55,24,30.26,30.20,30.11,10,10,10,23,13,29,0.00,0,,349
2011-11-30,46,32,17,17,12,8,67,46,25,30.20,30.10,30.01,10,10,10,17,9,22,0.00,0,,197